Content
SEND FEEDBACK

Daily
Averages
Monthly
Summary
United States of America

SKYLAND, NORTH CAROLINA


Home > North America > United States > North Carolina
Elevation: 2246 feet     Latitude: 35 30N     Longitude: 082 36W

WEATHER
 
SELECT A DAY
Number of Records: 226,813;   Date Range: 1/1/95 - 9/19/14
 
SHARE

PRINT THIS DATA

[ ← Previous Day ]
WEATHER ALMANAC - APRIL 5, 2013
[ Next Day → ]
[ °C ]   °F
Weather ElementAverageHighLow
Temperature44.2 °F57.9 °F (4:54 pm)37.4 °F (1:14 am)
Dewpoint36.1 °F39.2 °F (11:05 am)28 °F (3:54 pm)
Humidity77.4 %100 % (1:14 am)32 % (4:54 pm)
Barometer29.98 in30.08 in (10:54 pm)29.92 in (5:13 am)
Wind Speed9.3 mph25.3 mph (10:54 am)
Wind Gust31.1 mph (10:54 am)
Weather ElementAverage
Visibility10 mi
Wind DirectionWSW (244.4 °)

Weather ElementTotal
Precipitation---
Heating Degree Days17.4 (Base 65)
Averaged from 36 records on April 5, 2013
WEATHER CONDITIONS BREAKOUT
WIND DIRECTION BREAKOUT
WEATHER BY HOUR - APRIL 5, 2013
[ °C ]   °F
Local TimeTemperatureDewpointHumidityBarometerVisibilityWind DirectionWind SpeedGust SpeedPrecipitationEventsConditions
12:54 AM37.9 °F37.0 °F97 %29.98 in10.0 miCalmOvercast
1:14 AM37.4 °F37.4 °F100 %29.96 in10.0 miCalmOvercast
1:49 AM37.4 °F37.4 °F100 %29.95 in10.0 miCalmOvercast
1:54 AM37.9 °F37.0 °F97 %29.97 in10.0 miCalmOvercast
2:05 AM37.4 °F37.4 °F100 %29.95 in10.0 miSouth (170°)3.5 mphOvercast
2:50 AM37.4 °F37.4 °F100 %29.94 in10.0 miCalmOvercast
2:54 AM37.9 °F37.0 °F97 %29.96 in10.0 miCalmOvercast
3:11 AM37.4 °F37.4 °F100 %29.94 in10.0 miCalmOvercast
3:48 AM37.4 °F37.4 °F100 %29.94 in10.0 miCalmOvercast
3:49 AM37.9 °F37.0 °F97 %29.96 in10.0 miCalmOvercast
4:05 AM37.4 °F37.4 °F100 %29.93 in10.0 miNorth (350°)3.5 mphOvercast
4:14 AM39.2 °F37.4 °F93 %29.93 in10.0 miNorth (360°)3.5 mphOvercast
4:54 AM39.0 °F36.0 °F89 %29.93 in10.0 miNorth (350°)8.1 mphOvercast
5:13 AM39.2 °F37.4 °F93 %29.92 in10.0 miNorth (350°)15.0 mph19.6 mphOvercast
5:54 AM39.0 °F37.0 °F93 %29.92 in10.0 miNorth (350°)16.1 mph21.9 mphOvercast
6:54 AM39.0 °F37.0 °F93 %29.95 in10.0 miNorth (350°)11.5 mphOvercast
7:22 AM39.2 °F37.4 °F93 %29.95 in10.0 miNorth (360°)13.8 mphOvercast
7:54 AM39.9 °F37.0 °F89 %29.98 in10.0 miNorth (360°)11.5 mph20.7 mphOvercast
8:54 AM42.1 °F37.9 °F85 %30.00 in10.0 miNorth (350°)12.7 mphOvercast
9:54 AM43.0 °F37.9 °F82 %30.02 in10.0 miNorth (350°)12.7 mph18.4 mphOvercast
10:54 AM46.0 °F39.0 °F76 %30.01 in10.0 miNNW (330°)25.3 mph31.1 mphMostly Cloudy
11:05 AM46.4 °F39.2 °F76 %30.01 in10.0 miNorth (350°)18.4 mph28.8 mphMostly Cloudy
11:54 AM48.0 °F39.0 °F71 %30.01 in10.0 miNNW (340°)18.4 mph26.5 mphMostly Cloudy
12:28 PM48.2 °F37.4 °F66 %30.00 in10.0 miNorth (350°)17.3 mph25.3 mphScattered Clouds
12:54 PM51.1 °F39.0 °F63 %30.00 in10.0 miNorth (350°)17.3 mph25.3 mphPartly Cloudy
1:54 PM53.1 °F39.0 °F59 %29.99 in10.0 miNNW (330°)17.3 mph25.3 mphPartly Cloudy
2:54 PM54.0 °F35.1 °F49 %29.97 in10.0 miNNW (340°)13.8 mph20.7 mphClear
3:54 PM55.9 °F28.0 °F34 %29.97 in10.0 miNNW (330°)17.3 mph24.2 mphClear
4:54 PM57.9 °F28.0 °F32 %29.96 in10.0 miNW (320°)19.6 mph27.6 mphClear
5:54 PM57.0 °F30.0 °F36 %29.99 in10.0 miNorth (360°)10.4 mph18.4 mphClear
6:54 PM55.0 °F32.0 °F42 %30.00 in10.0 miNNW (330°)13.8 mphClear
7:54 PM54.0 °F32.0 °F43 %30.02 in10.0 miNNW (340°)11.5 mphClear
8:54 PM52.0 °F33.1 °F49 %30.04 in10.0 miNorth (350°)8.1 mphClear
9:54 PM46.0 °F35.1 °F66 %30.07 in10.0 miNNW (330°)8.1 mphClear
10:54 PM48.0 °F34.0 °F58 %30.08 in10.0 miCalmClear
11:54 PM44.1 °F34.0 °F68 %30.08 in10.0 miNorth (350°)6.9 mphClear
Hourly data recorded from KAVL, located miles away from Skyland, North Carolina







STORIES FROM OUR PARTNERS